Regional Weather Roundup
Issued by NWS Charleston, WV

Home | Current Version | Previous Version | Graphics & Text | Print | Product List | Glossary On
Versions: 1 2 3 4 5 6 7 8 9 10 11 12 13 14 15 16 17 18 19 20 21 22 23 24 25 26 27 28 29 30 31 32 33 34 35 36 37 38 39 40 41 42 43 44 45 46 47 48 49 50
000
ASUS41 KRLX 260810
RWRRLX
West Virginia Regional Weather Roundup
National Weather Service Charleston WV
300 AM EST THU FEB 26 2015

Note: "fair" indicates few or no clouds below 12,000 feet with no
significant weather and/or obstructions to visibility.

WVZ003-260900-
Northern Panhandle of West Virginia

CITY           SKY/WX    TMP DP  RH WIND       PRES   REMARKS
WHEELING       CLOUDY    20   7  57 NE9       29.87F WCI   9
$$

WVZ009-260900-
Northwest West Virginia

CITY           SKY/WX    TMP DP  RH WIND       PRES   REMARKS
PARKERSBURG    CLOUDY    28  15  58 NE10      29.87F
$$

WVZ006-260900-
Western West Virginia

CITY           SKY/WX    TMP DP  RH WIND       PRES   REMARKS
HUNTINGTON     CLOUDY    30  17  58 N6        29.80F
$$

WVZ015-260900-
West Central West Virginia

CITY           SKY/WX    TMP DP  RH WIND       PRES   REMARKS
CHARLESTON     FLURRIES  32  19  58 NE8       29.80F
$$

WVZ022-031-260900-
North Central West Virginia

CITY           SKY/WX    TMP DP  RH WIND       PRES   REMARKS
CLARKSBURG     CLOUDY    27  17  66 N9        29.81F
MORGANTOWN     CLOUDY    26  12  55 N7        29.85S
$$

WVZ025-035-042-045-260900-
Southern West Virginia

CITY           SKY/WX    TMP DP  RH WIND       PRES   REMARKS
BECKLEY        LGT SNOW  27  23  85 CALM      29.71F FOG
LOGAN          LGT SNOW  28  25  86 CALM      29.72F
BLUEFIELD      LGT SNOW  28  24  85 E3        29.68F FOG
LEWISBURG      LGT SNOW  29  25  86 N8        29.73F
$$

WVZ047-260900-
Northern Mountains of West Virginia

CITY           SKY/WX    TMP DP  RH WIND       PRES   REMARKS
ELKINS         FLURRIES  37  20  50 S3        29.78F
$$

WVZ052-260900-
Eastern Panhandle of West Virginia

CITY           SKY/WX    TMP DP  RH WIND       PRES   REMARKS
MARTINSBURG    CLOUDY    32  18  56 N5        29.89S
PETERSBURG     CLOUDY    32  15  49 CALM      29.85F
$$


USA.gov is the U.S. government's official web portal to all federal, state and local government web resources and services.